CT2IRK-11 Weather Reports


Display with metric or nautical units.
time (UTC)temp
F
wind
direction
speed
MPH
gust
MPH
rain 1hr
in
rain 24hr
in
rain mn
in
humidity
%
barometer
mb
20260831002006 64 28 5.0 12.0 0.00 0.00 0.00 91 1013.4
20260831001005 65 41 7.0 13.0 0.00 0.00 0.00 89 1013.3
20260831000005 65 38 7.0 12.0 0.00 0.00 0.00 89 1013.5
20260830235006 65 22 7.0 9.0 0.00 0.00 0.00 89 1013.7
20260830234005 65 63 6.0 10.0 0.00 0.00 0.00 89 1013.7
20260830231006 65 29 7.0 12.0 0.00 0.00 0.00 88 1013.5
20260830230009 66 35 6.0 10.0 0.00 0.00 0.00 87 1013.6
20260830224005 66 72 3.0 10.0 0.00 0.00 0.00 85 1013.5
20260830223005 66 10 5.0 13.0 0.00 0.00 0.00 83 1013.4
20260830222005 67 32 7.0 10.0 0.00 0.00 0.00 83 1013.4
20260830220004 67 19 8.0 15.0 0.00 0.00 0.00 81 1013.2
20260830215005 67 353 7.0 10.0 0.00 0.00 0.00 82 1013.3
20260830214005 67 348 8.0 15.0 0.00 0.00 0.00 81 1013.3
20260830213005 68 0 10.0 12.0 0.00 0.00 0.00 81 1013.3
20260830212005 68 343 7.0 10.0 0.00 0.00 0.00 81 1013.2
20260830211006 69 6 7.0 12.0 0.00 0.00 0.00 80 1013.1
20260830210004 69 11 7.0 10.0 0.00 0.00 0.00 78 1013.2
20260830205006 69 13 8.0 12.0 0.00 0.00 0.00 76 1012.9
20260830204005 70 21 9.0 10.0 0.00 0.00 0.00 75 1012.9
20260830203005 70 22 6.0 8.0 0.00 0.00 0.00 74 1012.8
20260830202004 71 16 6.0 13.0 0.00 0.00 0.00 72 1012.6
20260830200005 72 22 9.0 13.0 0.00 0.00 0.00 69 1012.3
20260830194005 72 14 7.0 12.0 0.00 0.00 0.00 69 1012.2
20260830193005 73 27 6.0 10.0 0.00 0.00 0.00 68 1012.0
20260830192005 74 2 5.0 10.0 0.00 0.00 0.00 67 1011.8
20260830191005 74 15 6.0 10.0 0.00 0.00 0.00 65 1011.9
20260830185005 77 338 7.0 10.0 0.00 0.00 0.00 61 1011.8
20260830184005 78 359 7.0 14.0 0.00 0.00 0.00 58 1011.8
20260830183005 79 12 9.0 13.0 0.00 0.00 0.00 56 1011.6
20260830182005 80 10 7.0 10.0 0.00 0.00 0.00 55 1011.7
20260830181005 81 349 9.0 12.0 0.00 0.00 0.00 52 1011.6
20260830180005 81 0 9.0 14.0 0.00 0.00 0.00 53 1011.5
20260830175005 82 354 9.0 14.0 0.00 0.00 0.00 52 1011.4
20260830171005 83 22 7.0 13.0 0.00 0.00 0.00 49 1011.3
20260830165014 85 53 5.0 10.0 0.00 0.00 0.00 47 1011.2
20260830164005 84 0 9.0 13.0 0.00 0.00 0.00 47 1011.2
20260830163005 85 311 10.0 13.0 0.00 0.00 0.00 46 1011.2
20260830162006 85 338 10.0 13.0 0.00 0.00 0.00 45 1011.3
20260830161005 85 338 10.0 15.0 0.00 0.00 0.00 45 1011.0
20260830160004 86 28 7.0 12.0 0.00 0.00 0.00 43 1011.2
20260830155005 86 0 8.0 12.0 0.00 0.00 0.00 43 1011.1
20260830153006 86 324 8.0 10.0 0.00 0.00 0.00 44 1011.1
20260830152005 86 5 10.0 14.0 0.00 0.00 0.00 42 1011.2
20260830151005 86 350 9.0 14.0 0.00 0.00 0.00 44 1011.3
20260830145005 87 316 7.0 12.0 0.00 0.00 0.00 45 1011.5
20260830144004 87 23 3.0 12.0 0.00 0.00 0.00 46 1011.5
20260830143005 87 19 7.0 10.0 0.00 0.00 0.00 45 1011.4
20260830142005 87 35 6.0 10.0 0.00 0.00 0.00 46 1011.6
20260830141005 87 5 7.0 12.0 0.00 0.00 0.00 46 1011.6
20260830140005 87 6 6.0 12.0 0.00 0.00 0.00 46 1011.7
20260830133005 87 338 5.0 12.0 0.00 0.00 0.00 46 1011.8
20260830132004 87 349 7.0 10.0 0.00 0.00 0.00 47 1011.9
20260830131005 86 49 9.0 10.0 0.00 0.00 0.00 47 1011.9
20260830130005 87 64 6.0 10.0 0.00 0.00 0.00 47 1012.1
20260830124005 87 37 5.0 12.0 0.00 0.00 0.00 46 1012.2
20260830123005 86 353 7.0 15.0 0.00 0.00 0.00 48 1012.2
20260830122005 85 16 6.0 12.0 0.00 0.00 0.00 48 1012.4
20260830120004 86 311 7.0 10.0 0.00 0.00 0.00 47 1012.5
20260830115004 87 32 1.0 6.0 0.00 0.00 0.00 49 1012.6
20260830114004 85 338 6.0 7.0 0.00 0.00 0.00 52 1012.6
20260830113004 85 329 5.0 8.0 0.00 0.00 0.00 51 1012.7
20260830112005 84 295 7.0 10.0 0.00 0.00 0.00 54 1012.8
20260830111005 83 310 6.0 10.0 0.00 0.00 0.00 55 1012.9
20260830110006 83 331 5.0 10.0 0.00 0.00 0.00 58 1013.1
20260830105004 82 291 1.0 8.0 0.00 0.00 0.00 59 1013.0
20260830103005 80 352 6.0 9.0 0.00 0.00 0.00 63 1012.9
20260830102005 80 1 6.0 10.0 0.00 0.00 0.00 63 1013.0
20260830101004 80 5 6.0 12.0 0.00 0.00 0.00 64 1013.0
20260830095006 79 13 6.0 9.0 0.00 0.00 0.00 68 1012.7
20260830094004 77 10 7.0 8.0 0.00 0.00 0.00 71 1012.7
20260830093005 78 12 5.0 10.0 0.00 0.00 0.00 71 1012.8
20260830092004 75 22 8.0 9.0 0.00 0.00 0.00 77 1012.8
20260830091005 75 22 7.0 10.0 0.00 0.00 0.00 77 1012.6
20260830090005 75 21 5.0 8.0 0.00 0.00 0.00 79 1012.5
20260830085005 74 338 6.0 10.0 0.00 0.00 0.00 82 1012.5
20260830083004 72 346 5.0 10.0 0.00 0.00 0.00 91 1012.4
20260830082004 72 315 0.0 0.0 0.00 0.00 0.00 97 1012.4
20260830081004 71 292 0.0 0.0 0.00 0.00 0.00 98 1012.3
20260830080004 70 22 0.0 0.0 0.00 0.00 0.00 99 1012.3
20260830075004 69 248 0.0 0.0 0.00 0.00 0.00 99 1012.2
20260830074006 68 68 0.0 0.0 0.00 0.00 0.00 99 1012.2
20260830072004 68 68 0.0 0.0 0.00 0.00 0.00 99 1012.0
20260830071005 67 222 0.0 0.0 0.00 0.00 0.00 99 1011.9
20260830065004 66 268 0.0 0.0 0.00 0.00 0.00 99 1011.7
20260830063006 64 223 0.0 0.0 0.00 0.00 0.00 99 1011.5
20260830062005 65 250 0.0 0.0 0.00 0.00 0.00 99 1011.5
20260830061006 64 253 0.0 0.0 0.00 0.00 0.00 99 1011.3
20260830060006 64 258 0.0 0.0 0.00 0.00 0.00 99 1011.2
20260830055007 65 268 0.0 0.0 0.00 0.00 0.00 99 1011.3
20260830054005 65 270 0.0 0.0 0.00 0.00 0.00 99 1011.3
20260830053011 65 186 0.0 0.0 0.00 0.00 0.00 99 1011.3
20260830052009 65 68 0.0 0.0 0.00 0.00 0.00 99 1011.5
20260830051006 65 22 0.0 0.0 0.00 0.00 0.00 99 1011.4
20260830050005 65 270 0.0 0.0 0.00 0.00 0.00 99 1011.4
20260830045005 65 43 0.0 0.0 0.00 0.00 0.00 99 1011.4
20260830044006 65 22 0.0 0.0 0.00 0.00 0.00 99 1011.4
20260830043006 66 275 0.0 0.0 0.00 0.00 0.00 99 1011.3
20260830041005 67 292 0.0 0.0 0.00 0.00 0.00 99 1011.3
20260830040005 67 307 0.0 0.0 0.00 0.00 0.00 99 1011.2
20260830035006 66 248 0.0 0.0 0.00 0.00 0.00 99 1011.4
20260830034005 66 202 0.0 0.0 0.00 0.00 0.00 99 1011.4
20260830031005 66 233 0.0 0.0 0.00 0.00 0.00 99 1011.5
20260830030007 66 180 0.0 0.0 0.00 0.00 0.00 99 1011.7
20260830025005 66 185 0.0 0.0 0.00 0.00 0.00 99 1011.7
20260830024005 65 220 0.0 0.0 0.00 0.00 0.00 99 1011.7
20260830022005 66 194 0.0 0.0 0.00 0.00 0.00 99 1011.6
20260830021006 66 243 0.0 0.0 0.00 0.00 0.00 99 1011.6
20260830020005 66 185 0.0 0.0 0.00 0.00 0.00 99 1011.7
20260830015005 66 202 0.0 0.0 0.00 0.00 0.00 99 1011.8
20260830014005 66 270 0.0 0.0 0.00 0.00 0.00 99 1011.8
20260830013006 66 324 0.0 0.0 0.00 0.00 0.00 99 1011.9
20260830012005 66 325 0.0 0.0 0.00 0.00 0.00 99 1011.9
20260830010005 68 4 0.0 3.0 0.00 0.00 0.00 99 1012.0
20260830005005 68 345 0.0 5.0 0.00 0.00 0.00 99 1012.1
20260830004005 68 44 0.0 6.0 0.00 0.00 0.00 99 1012.1
20260830003006 68 59 4.0 6.0 0.00 0.00 0.00 99 1012.3